SL-16 DEB, 18550

Orbit data source: Space-Track

SL-16 DEB, 18550 is space debris in LEO originally from a launch on Wed, 18 Mar 1987 UTC launched from the Tyuratam Missile And Space Complex (TTMTR). Debris objects in space refer to the collection of defunct objects orbiting the Earth. Examples of debris include non-operational satellites, rocket bodies, and fragments generated from explosions, collisions, or faulty payload assembly.

Loading next visibility...
Identifier
18550, 1987-027F
Orbit
LEO
Country
Flag of CISCIS
Related business
Manufacturer
Yuzhnoe
Mission
Spacecraft
Bus & Motor
SEP MOTOR COVER, Unknown motor
Mass
~0 kg wet, ~1 kg dry
Launch date (UTC)
1987-03-18 (39 years ago)
Launch vehicle
Unknown
Launch site
Tyuratam Missile And Space Complex (TTMTR)
Object type
Payload
Rocket body
Debris
Shape & HBR
Unknown shape, 0.1 m
Radar Cross Section
Small (<0.1 m²)

Expand to show TLE details & history
Last TLE update: 11 hours ago

TLE from 11 hours ago
0 SL-16 DEB
1 18550U 87027F   26130.49695846 -.00000002  00000-0  34943-4 0  9996
2 18550  71.0244 242.4516 0179972 132.8892 228.7484 13.79271718968780
Epoch: 2026-05-10T11:55Z
TLE epoch observation values (Epoch: 2026-05-10T11:55:37.210Z)
Latitude
-0.00001°
Longitude
-164.75264°
Altitude
1,057.325 km
Speed
7.279 km/s
True Right ascension
16h 09m 48s
True Declination
0° 00' 00"
Sunlit
Object was in full shadow at epoch
Visualization orbit readout
Latitude
Unknown
Longitude
Unknown
Altitude
Unknown
Speed
Unknown
Apparent Right ascension
Unknown
Apparent Declination
Unknown
Sunlit
N/A
Visualization observer readout
Local Sidereal Time
07:20:26
Azimuth
Unknown
Elevation
Unknown
Doppler factor
Unknown
Orbital elements
Apogee altitude
1,096.573 km
Perigee altitude
832.282 km
Semi-major axis
7,342.565 km
Eccentricity
0.018
Inclination
71.0244°
RAAN
242.4516°
Arg. of periapsis
132.8892°
True anomaly
227.22076°
Mean anomaly
228.7484°
Eccentric anomaly
227.98231°
Mean motion
3.44962 °/min
Orbital period
104.36 mins
BSTAR
0.000034943
Loading maneuver chart data...
Computing Atmospheric mass density...
Loading historical data...
Loading historical data...
Loading historical data...
Loading historical data...
Loading historical data...
Loading historical data...
Loading historical data...

Documentation

Showing up to 5 results
|